When you browse on this site, cookies collect data to enhance your experience and personalize the content and advertising you see.
Visit our Privacy Policy to learn more. By continuing to use the site, you agree to this use of cookies and data.
  • In Deutschland
  • Länderverzeichnis
  • Für 7 Tage
  • Wassertemperatur
  • Satellitenkarten
  • Wetterkarte
  • Widgets
  • user-avatar
    Anmelden

    Stündliche Wetter Escaldes-Engordany

    Heute, 23 Juli, Dienstag

    Zeit Temperatur Niederschläge Wind Luftdruck Luftfeuchtigkeit
    00:00 +19°C° 0 mm 1 m/S 644 mmHg 50%
    01:00 +19°C° 0 mm 1 m/S 643 mmHg 50%
    02:00 +19°C° 0 mm 1 m/S 643 mmHg 49%
    03:00 +19°C° 0 mm 1 m/S 643 mmHg 48%
    04:00 +20°C° 0 mm 1 m/S 643 mmHg 49%
    05:00 +20°C° 0 mm 1 m/S 643 mmHg 50%
    06:00 +21°C° 0 mm 1 m/S 643 mmHg 52%
    07:00 +23°C° 0 mm 1 m/S 644 mmHg 44%
    08:00 +26°C° 0 mm 1 m/S 645 mmHg 36%
    09:00 +29°C° 0 mm 1 m/S 646 mmHg 29%
    10:00 +30°C° 0 mm 2 m/S 646 mmHg 27%
    11:00 +30°C° 0 mm 2 m/S 646 mmHg 25%
    12:00 +31°C° 0 mm 2 m/S 646 mmHg 23%
    13:00 +31°C° 0 mm 2 m/S 646 mmHg 25%
    14:00 +31°C° 0 mm 2 m/S 645 mmHg 26%
    15:00 +30°C° 0 mm 2 m/S 645 mmHg 28%
    16:00 +29°C° 0 mm 2 m/S 644 mmHg 34%
    17:00 +28°C° 0 mm 1 m/S 644 mmHg 41%
    18:00 +26°C° 0 mm 1 m/S 643 mmHg 47%
    19:00 +24°C° 0 mm 1 m/S 643 mmHg 50%
    20:00 +22°C° 0 mm 1 m/S 642 mmHg 53%
    21:00 +20°C° 0 mm 1 m/S 642 mmHg 55%
    22:00 +20°C° 0 mm 1 m/S 642 mmHg 53%
    23:00 +20°C° 0 mm 1 m/S 642 mmHg 52%

    Morgen, 24 Juli, Mittwoch

    Zeit Temperatur Niederschläge Wind Luftdruck Luftfeuchtigkeit
    00:00 +19°C° 0 mm 1 m/S 642 mmHg 50%
    01:00 +19°C° 0 mm 1 m/S 642 mmHg 48%
    02:00 +19°C° 0 mm 1 m/S 641 mmHg 47%
    03:00 +19°C° 0 mm 1 m/S 641 mmHg 45%
    04:00 +20°C° 0 mm 1 m/S 641 mmHg 46%
    05:00 +20°C° 0 mm 1 m/S 642 mmHg 47%
    06:00 +21°C° 0 mm 1 m/S 642 mmHg 47%
    07:00 +23°C° 0 mm 1 m/S 643 mmHg 41%
    08:00 +26°C° 0 mm 1 m/S 644 mmHg 34%
    09:00 +29°C° 0 mm 1 m/S 645 mmHg 28%
    10:00 +30°C° 0 mm 1 m/S 645 mmHg 26%
    11:00 +30°C° 0 mm 2 m/S 645 mmHg 24%
    12:00 +31°C° 0 mm 2 m/S 645 mmHg 22%
    13:00 +31°C° 0 mm 2 m/S 644 mmHg 23%
    14:00 +31°C° 0 mm 2 m/S 644 mmHg 24%
    15:00 +31°C° 0 mm 2 m/S 644 mmHg 26%
    16:00 +29°C° 0 mm 2 m/S 643 mmHg 32%
    17:00 +28°C° 0 mm 2 m/S 643 mmHg 39%
    18:00 +26°C° 0 mm 2 m/S 642 mmHg 46%
    19:00 +24°C° 0 mm 1 m/S 642 mmHg 50%
    20:00 +22°C° 0 mm 1 m/S 641 mmHg 54%
    21:00 +20°C° 0 mm 1 m/S 641 mmHg 58%
    22:00 +20°C° 0 mm 1 m/S 641 mmHg 57%
    23:00 +20°C° 0 mm 1 m/S 640 mmHg 55%

    übermorgen, 25 Juli, Donnerstag

    Zeit Temperatur Niederschläge Wind Luftdruck Luftfeuchtigkeit
    00:00 +19°C° 0 mm 1 m/S 640 mmHg 54%
    01:00 +19°C° 0 mm 1 m/S 640 mmHg 53%
    02:00 +19°C° 0 mm 1 m/S 640 mmHg 51%
    03:00 +19°C° 0 mm 1 m/S 640 mmHg 49%
    04:00 +20°C° 0 mm 1 m/S 640 mmHg 49%
    05:00 +20°C° 0 mm 1 m/S 640 mmHg 49%
    06:00 +21°C° 0 mm 1 m/S 640 mmHg 48%
    07:00 +23°C° 0 mm 1 m/S 641 mmHg 42%
    08:00 +26°C° 0 mm 1 m/S 642 mmHg 35%
    09:00 +29°C° 0 mm 1 m/S 643 mmHg 28%
    10:00 +29°C° 0 mm 2 m/S 643 mmHg 27%
    11:00 +30°C° 0 mm 2 m/S 643 mmHg 25%
    12:00 +31°C° 0 mm 2 m/S 643 mmHg 24%
    13:00 +31°C° 0 mm 2 m/S 643 mmHg 24%
    14:00 +31°C° 0 mm 3 m/S 643 mmHg 25%
    15:00 +30°C° 0 mm 3 m/S 642 mmHg 26%
    16:00 +29°C° 0 mm 2 m/S 642 mmHg 33%
    17:00 +27°C° 0 mm 2 m/S 641 mmHg 41%
    18:00 +26°C° 0 mm 2 m/S 641 mmHg 48%
    19:00 +24°C° 0 mm 1 m/S 640 mmHg 51%
    20:00 +22°C° 0 mm 1 m/S 640 mmHg 54%
    21:00 +20°C° 0 mm 1 m/S 640 mmHg 57%
    22:00 +19°C° 0 mm 1 m/S 639 mmHg 56%
    23:00 +19°C° 0 mm 1 m/S 639 mmHg 55%

    26 Juli, Freitag

    Zeit Temperatur Niederschläge Wind Luftdruck Luftfeuchtigkeit
    00:00 +19°C° 0 mm 1 m/S 639 mmHg 54%
    01:00 +19°C° 0 mm 1 m/S 639 mmHg 53%
    02:00 +18°C° 0 mm 1 m/S 639 mmHg 53%
    03:00 +18°C° 0 mm 1 m/S 639 mmHg 52%
    04:00 +19°C° 0 mm 1 m/S 639 mmHg 53%
    05:00 +19°C° 0 mm 1 m/S 639 mmHg 53%
    06:00 +20°C° 0 mm 1 m/S 639 mmHg 54%
    07:00 +22°C° 0 mm 1 m/S 640 mmHg 48%
    08:00 +24°C° 0 mm 1 m/S 640 mmHg 42%
    09:00 +27°C° 0 mm 2 m/S 641 mmHg 36%
    10:00 +27°C° 0 mm 2 m/S 641 mmHg 34%
    11:00 +28°C° 0 mm 3 m/S 641 mmHg 33%
    12:00 +28°C° 0 mm 3 m/S 641 mmHg 32%
    13:00 +28°C° 0 mm 3 m/S 640 mmHg 33%
    14:00 +28°C° 0 mm 3 m/S 640 mmHg 33%
    15:00 +28°C° 0 mm 3 m/S 639 mmHg 34%
    16:00 +26°C° 0.3 mm 3 m/S 639 mmHg 43%
    17:00 +23°C° 0.3 mm 4 m/S 638 mmHg 52%
    18:00 +21°C° 0.3 mm 4 m/S 638 mmHg 62%
    19:00 +19°C° 0.5 mm 3 m/S 637 mmHg 69%
    20:00 +17°C° 0.5 mm 2 m/S 637 mmHg 76%
    21:00 +15°C° 0.5 mm 1 m/S 636 mmHg 82%
    22:00 +15°C° 0.1 mm 1 m/S 636 mmHg 83%
    23:00 +15°C° 0.1 mm 2 m/S 636 mmHg 84%

    27 Juli, Samstag

    Zeit Temperatur Niederschläge Wind Luftdruck Luftfeuchtigkeit
    00:00 +14°C° 0.1 mm 2 m/S 636 mmHg 85%
    01:00 +14°C° 0.5 mm 2 m/S 635 mmHg 88%
    02:00 +14°C° 0.5 mm 1 m/S 635 mmHg 90%
    03:00 +13°C° 0.5 mm 1 m/S 635 mmHg 93%
    04:00 +13°C° 0.4 mm 1 m/S 635 mmHg 93%
    05:00 +14°C° 0.4 mm 1 m/S 635 mmHg 92%
    06:00 +14°C° 0.4 mm 1 m/S 635 mmHg 92%
    07:00 +14°C° 0.7 mm 2 m/S 635 mmHg 88%
    08:00 +15°C° 0.7 mm 2 m/S 636 mmHg 85%
    09:00 +15°C° 0.7 mm 2 m/S 636 mmHg 82%
    10:00 +15°C° 0.7 mm 2 m/S 636 mmHg 82%
    11:00 +15°C° 0.7 mm 2 m/S 636 mmHg 82%
    12:00 +15°C° 0.7 mm 2 m/S 636 mmHg 82%
    13:00 +15°C° 0.3 mm 2 m/S 636 mmHg 82%
    14:00 +15°C° 0.3 mm 2 m/S 636 mmHg 81%
    15:00 +15°C° 0.3 mm 2 m/S 636 mmHg 81%
    16:00 +14°C° 0.1 mm 2 m/S 636 mmHg 81%
    17:00 +14°C° 0.1 mm 2 m/S 636 mmHg 81%
    18:00 +14°C° 0.1 mm 2 m/S 636 mmHg 80%
    19:00 +12°C° 0 mm 2 m/S 635 mmHg 82%
    20:00 +10°C° 0 mm 2 m/S 635 mmHg 83%
    21:00 +8°C° 0 mm 2 m/S 635 mmHg 84%
    22:00 +8°C° 0 mm 2 m/S 635 mmHg 84%
    23:00 +8°C° 0 mm 2 m/S 635 mmHg 84%

    28 Juli, Sonntag

    Zeit Temperatur Niederschläge Wind Luftdruck Luftfeuchtigkeit
    00:00 +8°C° 0 mm 2 m/S 635 mmHg 83%
    01:00 +8°C° 0 mm 2 m/S 635 mmHg 85%
    02:00 +8°C° 0 mm 2 m/S 635 mmHg 87%
    03:00 +8°C° 0 mm 2 m/S 635 mmHg 89%
    04:00 +8°C° 0 mm 2 m/S 635 mmHg 83%
    05:00 +9°C° 0 mm 2 m/S 636 mmHg 78%
    06:00 +9°C° 0 mm 2 m/S 636 mmHg 72%
    07:00 +13°C° 0 mm 1 m/S 637 mmHg 62%
    08:00 +16°C° 0 mm 1 m/S 638 mmHg 52%
    09:00 +20°C° 0 mm 1 m/S 639 mmHg 42%
    10:00 +21°C° 0 mm 1 m/S 640 mmHg 40%
    11:00 +22°C° 0 mm 1 m/S 640 mmHg 39%
    12:00 +23°C° 0 mm 2 m/S 640 mmHg 38%
    13:00 +23°C° 0 mm 2 m/S 640 mmHg 40%
    14:00 +23°C° 0 mm 2 m/S 640 mmHg 42%
    15:00 +23°C° 0 mm 2 m/S 639 mmHg 44%
    16:00 +21°C° 0 mm 2 m/S 639 mmHg 50%
    17:00 +19°C° 0 mm 2 m/S 639 mmHg 57%
    18:00 +19°C° 0 mm 1 m/S 638 mmHg 63%
    19:00 +16°C° 0 mm 1 m/S 638 mmHg 73%
    20:00 +14°C° 0 mm 1 m/S 638 mmHg 82%
    21:00 +12°C° 0 mm 1 m/S 637 mmHg 92%
    22:00 +12°C° 0 mm 1 m/S 638 mmHg 92%
    23:00 +12°C° 0 mm 1 m/S 638 mmHg 91%
    Mehr zeigen